Zurück zum Katalog

STARLINK-2102

AktivKommunikationVLEO
NORAD 47382·PAYLOAD·🇺🇸 United States

Gestartet Jan 20, 2021 von Cape Canaveral Space Force Station

Loading…

Nächste Überflüge (nächste 24 Stunden)

TLE

AktuellSource: CelesTrak SupGP

Epoche: Sep 15, 2026, 01:41 UTC

1 47382C 21005AK  26258.07062500 -.00025618  00000+0 -82380-3 0  2580
2 47382  53.1573 225.2059 0001254  87.7028 296.5218 15.31714637    11

Verfolge STARLINK-2102 in Echtzeit mit AllMySat

Download on the App Store